[TLELIST] Archives

 

[list_settings.list_name] Current TLEs

November 6th 2008 PDT

HST 1 20580U 90037B 08308.83191679 +.00000369 +00000-0 +15731-4 0 02629 2 20580 028.4683 132.4093 0003629 069.0789 291.0188 15.00424332815972 ISS (ZARYA) 1 25544U 98067A 08308.92479167 +.00011176 +00000-0 +86808-4 0 05800 2 25544 051.6451 020.0302 0003357 301.4383 034.7675 15.72360666570513 CXO 1 25867U 99040B 08307.75000000 +.00000435 +00000-0 +10000-3 0 02607 2 25867 064.4199 076.6052 7089502 277.4383 002.0814 00.37805953004159 ____________________________________________________________________ These 2-Line ...Continue Reading

[list_settings.list_name] Current TLEs

November 5th 2008 PDT

HST 1 20580U 90037B 08307.96719457 .00000365 00000-0 15418-4 0 2541 2 20580 028.4684 138.0478 0003599 060.1484 299.9462 15.00423977815844 ISS (ZARYA) 1 25544U 98067A 08308.57226811 .00011572 00000-0 89746-4 0 5777 2 25544 051.6442 021.8348 0003213 297.1819 202.2311 15.72353686570465 CXO 1 25867U 99040B 08305.08333333 +.00000364 +00000-0 +10000-3 0 02598 2 25867 064.4125 076.6748 7083175 277.4589 359.0522 00.37805763004147 ____________________________________________________________________ These 2-Line ...Continue Reading

[list_settings.list_name] Current TLEs

November 4th 2008 PDT

HST 1 20580U 90037B 08306.90292073 .00000367 00000-0 15556-4 0 2538 2 20580 028.4686 144.9902 0003544 048.1769 311.9121 15.00423592815688 ISS (ZARYA) 1 25544U 98067A 08306.53111337 .00013120 00000-0 10132-3 0 5635 2 25544 051.6434 032.2915 0003309 286.7565 171.1652 15.72308452570148 CXO 1 25867U 99040B 08305.08333333 +.00000364 +00000-0 +10000-3 0 02598 2 25867 064.4125 076.6748 7083175 277.4589 359.0522 00.37805763004147 ____________________________________________________________________ These 2-Line ...Continue Reading

[list_settings.list_name] Current TLEs

November 3rd 2008 PDT

HST 1 20580U 90037B 08305.90516385 +.00000359 +00000-0 +14963-4 0 02602 2 20580 028.4685 151.4967 0003556 037.4239 322.6601 15.00423115815534 ISS (ZARYA) 1 25544U 98067A 08305.83231601 +.00013173 +00000-0 +10179-3 0 05587 2 25544 051.6438 035.8712 0003369 287.6395 172.2309 15.72289430570036 CXO 1 25867U 99040B 08305.08333333 +.00000364 +00000-0 +10000-3 0 02598 2 25867 064.4125 076.6748 7083175 277.4589 359.0522 00.37805763004147 ____________________________________________________________________ These 2-Line ...Continue Reading

[list_settings.list_name] Current TLEs

November 2nd 2008 PDT

HST 1 20580U 90037B 08305.04044073 .00000341 00000-0 13526-4 0 2523 2 20580 028.4686 157.1361 0003545 027.9086 332.1694 15.00422656815401 ISS (ZARYA) 1 25544U 98067A 08305.52775463 .00013299 00000-0 10275-3 0 5566 2 25544 051.6430 037.4291 0003401 285.2423 249.5815 15.72280945569985 CXO 1 25867U 99040B 08305.08333333 +.00000364 +00000-0 +10000-3 0 02598 2 25867 064.4125 076.6748 7083175 277.4589 359.0522 00.37805763004147 ____________________________________________________________________ These 2-Line ...Continue Reading

[list_settings.list_name] Current TLEs

November 1st 2008 PDT

HST 1 20580U 90037B 08305.04044073 .00000341 00000-0 13526-4 0 2523 2 20580 028.4686 157.1361 0003545 027.9086 332.1694 15.00422656815401 ISS (ZARYA) 1 25544U 98067A 08304.49799380 .00010423 00000-0 81653-4 0 5492 2 25544 051.6426 042.7042 0003582 279.9093 182.3738 15.72248135569822 CXO 1 25867U 99040B 08305.08333333 +.00000364 +00000-0 +10000-3 0 02598 2 25867 064.4125 076.6748 7083175 277.4589 359.0522 00.37805763004147 ____________________________________________________________________ These 2-Line ...Continue Reading

[list_settings.list_name] Current TLEs

October 31st 2008 PDT

HST 1 20580U 90037B 08303.97616573 .00000327 00000-0 12417-4 0 2514 2 20580 028.4685 164.0784 0003549 015.3227 344.7468 15.00422168815246 ISS (ZARYA) 1 25544U 98067A 08302.84386692 +.00008771 +00000-0 +68594-4 0 05376 2 25544 051.6439 051.1708 0003191 290.7143 162.6213 15.72547825569560 CXO 1 25867U 99040B 08302.45833333 .00000371 00000-0 10000-3 0 2588 2 25867 064.4007 076.7274 7076203 277.4989 001.6724 00.37805544 4139 ____________________________________________________________________ These 2-Line ...Continue Reading

[list_settings.list_name] Current TLEs

October 30th 2008 PDT

HST 1 20580U 90037B 08302.84537295 .00000331 00000-0 12779-4 0 2507 2 20580 028.4686 171.4539 0003552 002.5515 357.5093 15.00421831815072 ISS (ZARYA) 1 25544U 98067A 08303.07940972 .00008802 00000-0 68803-4 0 5399 2 25544 051.6426 049.9647 0003273 290.5546 057.1298 15.72552326569595 CXO 1 25867U 99040B 08302.45833333 .00000371 00000-0 10000-3 0 2588 2 25867 064.4007 076.7274 7076203 277.4989 001.6724 00.37805544 4139 ____________________________________________________________________ These 2-Line ...Continue Reading

[list_settings.list_name] Current TLEs

October 29th 2008 PDT

HST 1 20580U 90037B 08300.91637248 +.00000344 +00000-0 +13770-4 0 02687 2 20580 028.4688 184.0343 0003553 340.6764 019.3689 15.00421266814783 ISS (ZARYA) 1 25544U 98067A 08300.87374000 +.00013370 +00000-0 +10223-3 0 05227 2 25544 051.6442 061.2668 0003083 281.3622 171.3869 15.72523937569257 CXO 1 25867U 99040B 08302.45833333 .00000371 00000-0 10000-3 0 2588 2 25867 064.4007 076.7274 7076203 277.4989 001.6724 00.37805544 4139 ____________________________________________________________________ These 2-Line ...Continue Reading

[list_settings.list_name] Current TLEs

October 28th 2008 PDT

HST 1 20580U 90037B 08301.11592412 .00000353 00000-0 14464-4 0 2493 2 20580 028.4689 182.7327 0003538 343.2044 016.8427 15.00421434814817 ISS (ZARYA) 1 25544U 98067A 08300.49095068 .00013761 00000-0 10512-3 0 5202 2 25544 051.6424 063.2261 0003041 281.1560 163.1483 15.72515376569193 CXO 1 25867U 99040B 08299.79166667 +.00000423 +00000-0 +10000-3 0 02576 2 25867 064.3854 076.7774 7070555 277.5470 358.5898 00.37806224004124 ____________________________________________________________________ These 2-Line ...Continue Reading
  • This mailing list is a public mailing list - anyone may join or leave, at any time.
  • This mailing list is announce-only.

International Space Station (ISS) / Hubble Space Telescope (HST) / Chandra X-Ray Observatory Orbital Data via EMAIL

Privacy Policy:

Private list